Regional Weather Roundup
Issued by NWS Kansas City/Pleasant Hill, MO

Home | Current Version | Previous Version | Text Only | Print | Product List | Glossary On
Versions: 1 2 3 4 5 6 7 8 9 10 11 12 13 14 15 16 17 18 19 20 21 22 23 24 25 26 27 28 29 30 31 32 33 34 35 36 37 38 39 40 41 42 43 44 45 46 47 48 49 50
000
ASUS43 KEAX 011411
RWREAX

WEATHER ROUNDUP FOR EASTERN KANSAS AND NORTHWEST MISSOURI
NATIONAL WEATHER SERVICE KANSAS CITY/PLEASANT HILL MO
900 AM CDT WED OCT 01 2014

KSZ040-057-103>105-MOZ028-029-037-043-011500-
...KANSAS CITY METROPOLITAN AREA...

CITY           SKY/WX    TMP DP  RH WIND       PRES   REMARKS
K.C. INTL      TSTM      66  65  96 SE9       29.79R FOG
K.C. DOWNTOWN  PTSUNNY   70  64  81 SE6       29.78S
LEES SUMMIT    PTSUNNY   69  62  78 S5        29.80S
OLATHE - IXD   PTSUNNY   68  63  84 S7        29.79S
OLATHE - OJC   PTSUNNY   68  62  81 MISG      29.78S
LAWRENCE       PTSUNNY   66  63  90 E5        29.77S FOG

$$

MOZ001>008-011>017-020>025-030>033-038>040-044>046-053-054-011500-
...NORTHERN AND CENTRAL MISSOURI...

CITY           SKY/WX    TMP DP  RH WIND       PRES   REMARKS
ST. JOSEPH     PTSUNNY   65  63  93 SE9       29.77S
MOSBY          CLOUDY    64  64 100 E5        29.80S
WHITEMAN AFB   LGT RAIN  64  61  88 VRB7      29.80S
CLINTON        PTSUNNY   70  61  73 S8        29.82S HAZE
SEDALIA        CLOUDY    67  61  81 S8        29.82S HAZE
WARSAW         NOT AVBL
MARSHALL       TSTM      66  63  88 N5        29.86S
CHILLICOTHE      N/A     63  61  93 E9        29.83R
KIRKSVILLE     TSTM      61  60  97 E7        29.90S FOG

$$

MOZ041-047>049-056>058-063>065-088>090-097-011500-
...EASTERN AND SOUTHERN MISSOURI...

CITY           SKY/WX    TMP DP  RH WIND       PRES   REMARKS
ST. LOUIS INTL MOSUNNY   69  60  73 SE12      29.92S
SPIRIT OF STL  SUNNY     67  59  75 SE5       29.90S
COLUMBIA       MOSUNNY   67  57  70 SE10      29.85S
JEFFERSON CITY MOSUNNY   68  56  65 SE7       29.85S
MEXICO         MOSUNNY   68  63  83 SE8       29.86F
HANNIBAL       PTSUNNY   66  59  77 SE5       29.88S
ROLLA          MOSUNNY   69  54  58 S10       29.87F
OSAGE BEACH    MOSUNNY   70  55  60 S10       29.86S
SPRINGFIELD    SUNNY     70  58  65 S15       29.87R
BRANSON        MOSUNNY   72  57  60 SE8       29.89R
NEVADA         PTSUNNY   72  61  68 S13G18    29.82S HAZE
JOPLIN         PTSUNNY   73  63  70 S14G20    29.83R
WEST PLAINS    SUNNY     67  57  70 SE3       29.92S

$$

IAZ060-094-KSZ022-034>040-054-083-096-NEZ052-066-093-011500-
...KANSAS...SOUTHEAST NEBRASKA AND IOWA...

CITY           SKY/WX    TMP DP  RH WIND       PRES   REMARKS
TOPEKA         MOSUNNY   70  66  87 S9        29.75S
MANHATTAN      MOSUNNY   69  66  90 SW8       29.74R
EMPORIA        PTSUNNY   69  65  86 S5        29.76R
CHANUTE        LGT RAIN  68  65  90 S7        29.79F
WICHITA        MOSUNNY   72  63  73 S8        29.74S
OMAHA          PTSUNNY   65  60  84 CALM      29.76R
LINCOLN        CLOUDY    64  60  87 N13       29.77R
FALLS CITY     CLOUDY    65  63  93 SE7       29.75R
LAMONI         LGT RAIN  63  61  93 S7        29.81R FOG
DES MOINES     CLOUDY    61  58  90 SE10      29.80R FOG

$$




USA.gov is the U.S. government's official web portal to all federal, state and local government web resources and services.